Temp
58 58 58 58 59 59 60 60 60 60 60 60 60 60 60 60 60 58 54 61 62 66 64 60 60 61 60 56 61 59 41 38 43 46 51 62 55 60 62 59 60 64 61 63 68
58 57 57 58 59 59 59 59 60 60 60 60 60 60 60 60 53 52 64 67 66 66 58 57 56 58 51 55 55 49 40 44 54 57 54 58 56 56 56 56 56 61 61 64 65
57 57 57 58 58 59 59 59 59 60 60 60 60 60 60 58 50 53 66 66 65 65 60 60 60 57 50 52 52 51 43 51 55 58 58 55 54 58 53 51 56 57 60 63 59
57 57 58 57 58 58 58 58 59 59 59 60 60 59 59 54 41 56 65 65 65 63 59 58 54 48 47 48 55 45 53 54 56 59 54 52 57 53 53 54 60 61 62 61 59
56 56 56 57 57 57 58 58 59 59 59 59 60 59 53 47 50 62 64 64 62 60 56 54 50 48 43 50 52 48 51 56 57 56 54 55 52 51 53 58 62 62 62 60 61
56 55 56 56 56 57 57 58 58 58 59 60 60 59 48 42 60 63 61 59 60 56 54 54 51 52 48 48 48 51 51 52 54 54 55 51 51 49 52 58 57 60 59 59 61
55 55 55 56 56 56 57 57 58 60 59 60 60 56 49 47 60 61 61 57 58 56 51 54 54 49 50 47 53 52 44 47 50 53 51 54 46 47 54 54 55 58 57 59 59
55 55 55 55 55 56 56 57 58 59 59 60 60 51 44 59 56 60 60 57 59 58 56 55 55 50 48 49 49 44 44 38 51 54 53 51 39 51 55 50 52 55 53 56 59
55 55 55 55 55 55 56 57 58 59 60 60 50 46 43 59 55 57 57 55 56 56 56 62 52 45 46 38 35 38 31 36 44 54 51 47 41 52 55 52 52 51 52 53 56
55 55 55 54 55 55 57 58 58 57 57 59 58 42 51 48 53 56 57 57 52 51 49 47 43 36 35 33 27 31 32 38 37 47 47 42 41 49 53 52 51 53 51 52 54
55 54 54 54 55 56 52 48 44 42 47 43 45 47 51 54 56 53 57 53 52 47 37 42 34 29 35 37 39 38 35 33 40 47 42 41 39 44 52 51 50 51 49 50 52
54 54 54 54 55 55 49 41 39 40 38 48 49 49 53 53 47 50 55 45 44 36 40 36 30 40 44 43 40 36 32 32 39 45 42 40 41 47 50 52 53 53 52 51 51
54 54 53 54 54 47 41 40 47 45 35 44 49 49 49 51 46 46 51 47 41 37 38 32 40 46 44 39 38 35 32 32 34 39 40 36 32 39 47 51 51 49 49 48 47
54 53 53 53 47 43 38 45 46 44 27 36 43 46 50 49 42 53 53 46 42 38 39 37 44 42 37 37 39 30 39 38 37 31 23 35 18 33 42 43 45 46 46 46 47
53 53 52 53 40 38 41 45 47 40 11 39 41 53 50 43 44 44 51 46 38 38 38 36 38 36 35 38 42 35 40 37 35 29 26 28 20 31 41 37 40 43 44 45 46
53 52 52 45 40 41 44 43 43 21 10 28 40 38 39 42 43 44 43 45 45 38 38 37 42 41 39 41 40 41 37 35 32 28 9 26 25 28 35 39 40 42 44 44 45
52 52 47 47 36 43 42 37 20 12 29 22 28 34 33 33 37 39 37 32 28 23 26 34 36 39 43 35 39 37 28 8 10 9 12 29 26 30 39 42 41 40 41 43 45
52 51 46 47 42 42 38 25 12 11 13 32 31 32 28 31 33 34 31 26 31 29 24 21 22 36 41 37 33 32 28 13 9 9 17 30 21 33 42 42 43 42 42 42 43
51 39 39 41 44 40 31 11 15 20 26 28 29 20 21 29 28 30 26 25 27 29 20 19 25 36 39 39 38 30 24 34 14 10 11 22 30 41 42 38 38 38 39 38 40
35 35 37 43 41 36 21 22 18 33 33 31 21 20 9 14 23 25 26 29 29 32 31 26 17 31 35 37 36 32 35 21 16 5 3 18 24 25 30 31 33 34 35 35 39
34 30 39 42 39 29 16 13 27 36 34 29 21 15 21 12 22 21 24 28 32 30 33 27 24 25 31 28 27 24 19 22 24 21 10 8 17 34 31 31 30 33 34 34 36
32 21 40 40 23 16 12 26 35 31 33 31 30 28 21 19 16 21 23 27 34 31 22 28 22 13 21 31 33 29 25 24 17 13 16 15 18 35 33 34 35 35 34 34 35
25 27 38 38 16 11 19 28 30 29 29 29 28 30 28 17 12 20 25 32 33 30 23 26 14 2 12 22 26 23 27 25 20 19 11 8 17 35 34 30 34 33 34 33 36
27 20 26 29 28 23 15 20 23 31 29 30 29 30 24 18 24 16 25 29 31 31 35 31 16 9 8 16 19 18 23 24 14 0 2 13 11 25 27 26 30 28 30 31 31
25 18 22 14 18 23 26 24 24 18 27 28 26 27 22 11 14 12 19 25 29 33 28 23 7 11 14 18 18 19 19 20 14 6 7 17 9 20 18 22 24 28 31 29 30
23 20 21 16 26 24 24 18 22 23 24 25 19 26 22 14 16 9 16 17 21 22 22 21 9 15 6 18 19 16 21 21 20 17 15 19 17 28 31 29 27 24 25 26 24
32 31 26 26 23 18 19 21 24 26 27 29 24 21 24 25 24 26 28 28 24 19 15 13 9 1 5 17 13 3 15 20 19 14 13 10 20 24 19 23 17 23 25 22 23
MSLP
1021.93 1021.66 1021.37 1021.08 1020.70 1020.42 1020.16 1019.81 1019.44 1019.15 1018.92 1018.63 1018.35 1018.06 1017.83 1017.65 1016.95 1016.49 1016.48 1016.12 1015.84 1015.55 1015.42 1015.35 1015.29 1014.97 1015.01 1015.10 1014.72 1014.97 1015.79 1015.50 1014.93 1014.22 1013.17 1011.97 1011.46 1010.60 1010.16 1010.36 1010.30 1010.37 1010.53 1010.85 1010.78
1021.95 1021.79 1021.39 1021.05 1020.74 1020.45 1020.09 1019.72 1019.27 1018.95 1018.71 1018.50 1018.04 1018.08 1017.65 1017.41 1016.68 1016.46 1016.15 1015.79 1015.81 1015.69 1015.77 1015.53 1015.17 1015.15 1015.33 1014.98 1014.85 1014.93 1015.14 1014.82 1014.19 1013.58 1013.40 1012.96 1012.37 1011.65 1011.11 1010.87 1010.76 1010.67 1010.91 1010.89 1010.91
1021.97 1021.78 1021.51 1020.94 1020.59 1020.36 1020.02 1019.56 1019.11 1018.66 1018.30 1018.11 1017.96 1017.81 1017.53 1017.27 1016.68 1016.41 1015.89 1015.54 1015.77 1015.84 1015.99 1015.57 1015.14 1014.97 1015.35 1015.01 1014.74 1014.61 1014.59 1014.42 1013.81 1013.51 1013.44 1013.17 1012.76 1012.23 1011.92 1011.60 1011.35 1011.37 1011.19 1011.60 1011.81
1022.00 1021.70 1021.31 1021.06 1020.61 1020.23 1019.87 1019.34 1018.90 1018.42 1018.16 1017.90 1017.65 1017.69 1017.43 1017.14 1017.03 1016.25 1015.94 1015.48 1015.76 1015.99 1015.99 1015.74 1015.40 1015.36 1015.37 1015.15 1014.39 1014.77 1014.46 1014.37 1013.89 1013.27 1013.43 1013.42 1012.71 1012.48 1012.23 1012.09 1011.55 1011.30 1011.32 1011.20 1011.83
1021.90 1021.77 1021.35 1021.07 1020.57 1020.17 1019.70 1019.06 1018.61 1018.27 1017.96 1017.76 1017.54 1017.54 1017.37 1016.92 1016.48 1016.05 1015.84 1015.67 1015.63 1015.91 1015.93 1016.06 1016.00 1015.70 1015.66 1015.28 1014.68 1014.49 1014.23 1013.99 1013.63 1013.35 1013.11 1013.12 1012.99 1012.77 1011.99 1011.85 1011.31 1011.18 1011.32 1011.53 1011.55
1021.94 1021.67 1021.14 1020.80 1020.40 1020.03 1019.53 1018.90 1018.46 1017.76 1017.65 1017.39 1017.48 1017.54 1017.34 1016.63 1015.87 1015.96 1015.84 1015.72 1015.84 1016.10 1016.10 1016.06 1016.48 1016.16 1016.03 1015.71 1015.41 1014.83 1014.64 1014.31 1013.86 1013.31 1013.24 1013.28 1012.82 1012.88 1011.97 1011.57 1011.62 1011.38 1011.16 1011.29 1011.43
1021.77 1021.57 1021.07 1020.69 1020.10 1019.68 1019.15 1018.72 1018.16 1017.45 1017.13 1017.19 1017.39 1017.48 1016.86 1016.29 1015.75 1015.84 1015.73 1015.78 1015.93 1016.24 1016.26 1016.18 1016.40 1016.60 1016.54 1016.23 1015.79 1015.44 1015.20 1014.53 1013.59 1012.76 1012.99 1012.68 1012.80 1012.45 1011.53 1011.87 1011.86 1011.52 1011.22 1011.00 1010.85
1021.60 1021.36 1020.99 1020.44 1019.91 1019.46 1018.90 1018.38 1017.87 1017.51 1017.16 1017.14 1017.34 1017.59 1016.61 1015.73 1015.69 1015.77 1015.73 1015.75 1015.96 1016.21 1016.38 1016.34 1016.46 1016.87 1016.92 1016.64 1016.21 1015.88 1015.60 1014.82 1013.20 1012.65 1012.45 1012.75 1012.63 1011.86 1011.59 1011.95 1011.77 1011.08 1010.98 1010.87 1010.51
1021.52 1021.20 1020.82 1020.26 1019.64 1019.23 1018.69 1018.15 1017.79 1017.57 1017.58 1017.30 1017.37 1017.35 1016.67 1015.76 1015.75 1015.76 1015.81 1015.74 1015.93 1016.31 1016.37 1016.32 1016.68 1017.02 1017.10 1017.34 1017.21 1016.44 1016.11 1015.26 1014.10 1012.78 1012.61 1012.87 1012.59 1011.73 1011.44 1011.69 1011.60 1011.20 1010.93 1010.85 1010.47
1021.40 1021.05 1020.68 1020.15 1019.52 1018.94 1018.35 1017.94 1017.69 1017.71 1017.50 1017.31 1016.97 1017.33 1016.56 1016.12 1015.83 1015.88 1015.87 1015.92 1015.95 1016.37 1016.72 1016.81 1017.09 1017.46 1017.76 1017.94 1017.76 1017.10 1016.68 1015.80 1015.15 1013.93 1013.58 1013.48 1013.21 1012.15 1011.64 1011.58 1011.33 1010.96 1010.81 1010.71 1010.57
1021.04 1020.89 1020.50 1019.94 1019.39 1018.78 1018.40 1017.99 1018.53 1018.46 1017.62 1017.15 1017.14 1016.81 1016.52 1016.25 1015.89 1015.89 1015.78 1016.03 1016.09 1016.59 1017.01 1017.17 1017.68 1017.85 1017.52 1017.51 1017.15 1017.18 1016.94 1016.38 1015.51 1014.76 1014.37 1013.73 1013.33 1012.47 1011.42 1011.24 1011.05 1010.79 1010.84 1010.88 1010.51
1020.91 1020.70 1020.31 1019.76 1019.33 1018.80 1018.48 1019.27 1020.30 1020.52 1018.98 1017.43 1017.15 1016.83 1016.66 1016.47 1016.25 1016.03 1015.94 1016.35 1016.47 1016.87 1017.06 1017.63 1017.43 1016.70 1016.88 1016.85 1016.93 1016.97 1017.03 1016.69 1015.87 1015.06 1015.14 1014.25 1013.36 1012.40 1011.21 1010.91 1010.52 1010.36 1011.12 1011.20 1011.04
1020.87 1020.57 1020.13 1019.62 1019.23 1019.49 1019.98 1020.42 1020.48 1020.52 1019.71 1017.99 1017.11 1016.80 1016.71 1016.69 1016.23 1016.28 1016.24 1016.18 1016.57 1016.88 1016.98 1017.27 1016.52 1016.17 1016.39 1016.44 1016.68 1016.73 1016.95 1016.81 1016.64 1016.04 1015.53 1015.09 1013.88 1012.63 1011.35 1011.49 1010.90 1011.49 1012.12 1012.38 1012.41
1020.93 1020.50 1020.01 1019.44 1019.57 1019.84 1020.52 1020.63 1020.46 1020.57 1020.12 1018.63 1017.41 1016.94 1016.78 1016.76 1016.61 1016.31 1016.30 1016.59 1016.53 1016.68 1016.67 1016.60 1016.14 1016.08 1016.21 1016.28 1016.45 1016.72 1016.53 1016.77 1017.05 1017.21 1017.33 1016.58 1016.25 1014.18 1012.53 1013.04 1012.66 1012.95 1013.02 1013.16 1012.93
1020.64 1020.46 1020.00 1019.52 1019.93 1020.12 1020.84 1020.41 1020.29 1020.59 1020.41 1019.15 1017.68 1016.86 1016.84 1017.26 1017.16 1016.77 1016.57 1016.72 1016.97 1017.01 1017.14 1016.43 1016.08 1016.02 1016.09 1016.01 1015.95 1016.40 1016.51 1017.09 1017.70 1018.26 1018.35 1017.51 1017.27 1014.52 1013.80 1013.92 1014.01 1014.07 1013.98 1013.97 1013.99
1020.66 1020.32 1020.18 1020.20 1020.34 1020.64 1020.34 1020.50 1020.41 1021.38 1021.01 1019.90 1018.66 1018.14 1017.89 1017.59 1017.43 1017.27 1017.23 1017.26 1017.23 1017.49 1017.41 1017.02 1016.32 1016.13 1015.86 1015.93 1016.10 1016.45 1017.07 1017.76 1018.36 1019.36 1019.64 1017.87 1017.25 1015.32 1014.14 1014.40 1014.79 1014.96 1014.99 1015.08 1014.97
1020.52 1020.28 1020.21 1020.32 1020.67 1020.46 1020.36 1020.79 1022.13 1022.37 1021.97 1021.42 1020.62 1019.96 1019.54 1019.15 1018.45 1018.20 1018.22 1018.55 1018.77 1018.81 1018.59 1017.65 1016.56 1016.22 1016.01 1016.28 1016.37 1017.08 1018.34 1019.83 1020.49 1020.98 1020.19 1018.19 1017.45 1015.06 1014.91 1015.09 1015.47 1015.83 1016.11 1016.15 1015.99
1020.23 1020.15 1020.25 1020.14 1020.47 1020.39 1020.73 1021.58 1022.99 1023.30 1023.13 1022.22 1021.58 1021.14 1021.02 1020.61 1019.89 1019.50 1019.45 1020.07 1020.18 1020.11 1020.04 1019.14 1017.89 1016.91 1016.56 1016.52 1016.89 1017.66 1018.92 1020.55 1021.58 1021.86 1020.97 1018.61 1017.07 1015.61 1015.49 1015.83 1016.21 1016.62 1017.00 1017.00 1016.79
1020.01 1020.31 1020.34 1020.22 1020.06 1020.44 1021.40 1022.57 1022.96 1022.98 1022.83 1022.59 1022.45 1022.32 1022.40 1021.95 1021.72 1020.98 1020.93 1021.20 1021.30 1021.23 1021.25 1020.59 1019.18 1017.88 1017.17 1017.06 1017.45 1018.09 1019.00 1019.59 1021.18 1022.58 1021.81 1019.66 1017.45 1016.79 1016.54 1016.95 1017.26 1017.40 1017.44 1017.73 1017.80
1020.61 1020.58 1020.26 1020.16 1019.98 1020.58 1021.79 1023.25 1023.38 1022.70 1022.60 1022.40 1022.79 1023.47 1023.62 1023.45 1022.97 1022.14 1021.80 1021.86 1021.91 1021.83 1021.79 1021.67 1020.96 1019.25 1018.43 1018.02 1017.95 1018.34 1019.28 1020.40 1021.71 1022.75 1022.26 1019.82 1018.14 1017.13 1017.61 1018.18 1018.30 1018.13 1018.40 1018.73 1018.75
1020.82 1020.77 1020.27 1019.87 1020.23 1021.19 1022.94 1023.66 1023.15 1022.77 1022.62 1022.74 1023.09 1023.70 1024.14 1024.38 1024.14 1023.48 1022.76 1022.63 1022.28 1022.40 1022.34 1022.51 1022.41 1021.24 1020.10 1019.52 1019.46 1019.65 1020.21 1021.34 1022.13 1022.58 1022.46 1021.09 1019.06 1018.38 1018.60 1018.92 1019.06 1019.26 1019.33 1019.49 1019.49
1020.55 1021.27 1019.98 1019.84 1021.49 1023.10 1024.06 1023.61 1023.09 1022.73 1022.50 1022.57 1022.99 1023.68 1024.48 1024.96 1025.08 1024.45 1023.67 1022.96 1022.83 1022.95 1023.47 1023.77 1023.80 1023.43 1022.29 1020.80 1020.84 1020.80 1021.61 1022.43 1023.51 1023.88 1023.49 1022.40 1019.91 1018.97 1018.82 1019.21 1019.19 1019.66 1020.03 1020.13 1020.03
1021.27 1021.14 1020.21 1020.21 1022.19 1023.98 1024.11 1023.78 1023.25 1022.90 1022.66 1022.79 1023.11 1023.60 1024.53 1025.30 1025.78 1025.19 1024.34 1023.91 1023.62 1023.86 1024.41 1024.80 1025.03 1025.25 1023.78 1022.96 1022.57 1022.69 1022.95 1023.92 1024.77 1025.23 1024.76 1023.77 1020.42 1018.99 1018.56 1019.45 1020.09 1020.19 1020.37 1020.18 1020.05
1021.64 1022.21 1022.13 1022.02 1022.59 1023.44 1024.44 1023.92 1023.63 1023.09 1022.97 1022.99 1023.37 1023.68 1024.79 1025.57 1025.82 1025.77 1025.07 1024.59 1024.44 1024.53 1024.95 1025.50 1026.18 1026.28 1025.70 1025.08 1024.69 1024.23 1023.97 1024.49 1025.35 1026.53 1025.45 1023.48 1021.57 1020.41 1019.07 1019.22 1019.70 1020.51 1020.59 1020.62 1020.65
1021.71 1023.06 1023.02 1023.56 1023.76 1023.84 1023.91 1023.94 1023.69 1023.53 1023.51 1023.40 1023.66 1024.06 1024.99 1026.11 1026.25 1026.34 1025.90 1025.44 1025.13 1025.05 1025.47 1026.33 1026.91 1026.96 1026.40 1025.99 1025.45 1024.58 1024.07 1024.48 1024.89 1025.44 1025.55 1022.49 1022.89 1021.01 1021.46 1021.01 1020.08 1019.90 1020.13 1020.10 1020.02
1021.96 1022.71 1023.30 1023.73 1023.60 1023.95 1024.07 1024.22 1023.72 1023.62 1023.68 1023.68 1023.86 1024.05 1024.71 1025.46 1025.73 1026.17 1026.16 1026.28 1025.80 1025.76 1026.08 1026.59 1026.95 1027.10 1026.83 1026.35 1025.57 1024.54 1023.73 1023.78 1024.03 1024.08 1023.94 1023.06 1021.33 1021.23 1020.94 1020.83 1020.69 1020.56 1020.19 1020.23 1020.19
1021.65 1021.80 1022.21 1023.82 1023.92 1023.93 1023.95 1023.74 1023.48 1023.41 1023.57 1023.48 1023.82 1024.11 1024.14 1024.38 1024.87 1025.18 1025.42 1025.69 1025.80 1026.04 1026.51 1026.72 1027.17 1027.67 1026.69 1026.21 1025.63 1023.92 1022.32 1022.31 1022.29 1022.40 1022.27 1021.82 1020.05 1020.76 1021.00 1020.79 1020.54 1020.43 1020.19 1020.24 1020.30
Wind_Speed
14 15 16 16 17 17 17 17 16 15 15 14 13 12 11 12 13 4 2 2 2 5 6 5 4 5 3 3 2 4 1 3 5 6 7 10 4 3 0 3 2 3 1 4 8
15 16 16 16 17 18 18 17 16 14 13 13 11 11 11 11 2 2 5 7 4 5 4 3 3 5 1 4 3 5 5 6 5 7 4 7 8 6 3 4 3 5 4 7 8
15 16 17 17 18 19 19 17 16 14 13 12 11 9 10 8 2 2 6 6 3 5 4 5 4 3 3 2 5 4 5 6 11 13 7 7 6 6 4 3 4 5 3 5 3
16 16 17 18 19 19 20 18 16 14 13 11 9 8 9 3 3 1 5 7 3 5 6 5 3 0 2 5 5 4 6 6 7 12 4 6 7 8 4 7 7 9 3 5 6
16 17 18 19 20 20 20 18 17 16 13 11 8 5 4 2 2 3 0 4 3 4 4 4 3 1 2 5 6 6 5 7 8 9 9 6 7 6 10 9 12 9 3 4 8
16 17 17 19 20 21 20 19 18 11 10 7 6 5 3 3 1 5 3 2 3 3 4 5 4 4 3 4 2 4 6 7 6 9 7 7 9 2 6 7 9 10 11 8 8
16 17 19 20 20 20 20 20 14 10 8 6 7 5 2 2 2 3 1 3 2 3 2 2 3 4 6 4 6 5 8 8 7 13 7 6 8 10 14 6 12 15 10 10 8
16 18 20 21 21 20 18 17 10 5 2 5 7 3 2 0 2 2 3 3 2 0 1 2 3 2 2 3 6 3 2 4 5 5 7 10 10 7 8 3 12 15 10 9 11
16 18 20 22 21 19 18 12 9 3 1 4 2 2 2 1 3 1 1 2 4 1 2 2 2 2 3 2 4 3 3 4 6 5 3 6 7 7 6 5 9 7 9 9 9
16 18 20 21 19 17 19 11 6 5 5 6 5 2 2 2 3 1 1 1 1 4 0 1 2 2 3 3 3 1 4 5 5 5 7 8 8 9 8 8 10 13 9 8 9
16 18 20 20 19 16 9 4 4 3 2 2 1 2 2 2 2 2 2 1 1 2 2 3 4 5 9 8 5 5 6 8 6 9 7 7 6 10 14 8 10 12 7 8 10
16 18 20 18 16 15 4 5 2 2 2 1 2 2 3 1 1 2 2 2 4 4 2 2 5 10 6 3 5 2 4 7 8 6 8 9 16 17 18 14 16 14 6 7 7
16 18 20 16 11 5 6 3 4 3 1 1 1 2 2 1 2 3 4 3 4 3 6 7 8 4 3 2 4 3 4 5 8 5 5 6 9 5 5 7 16 17 13 13 11
16 19 17 17 4 1 3 5 5 1 5 1 1 1 1 2 1 2 1 1 3 5 4 6 4 4 2 2 4 4 2 2 4 6 2 6 7 5 7 9 15 15 15 15 18
15 18 14 8 2 3 3 4 4 1 5 5 2 1 2 2 3 1 1 2 3 2 5 7 5 3 3 4 4 5 1 2 3 4 4 4 4 9 4 6 8 10 11 12 13
14 16 13 5 3 1 3 4 0 10 7 2 5 6 2 1 0 3 1 1 2 3 3 7 1 4 7 1 2 2 3 4 0 2 4 8 6 7 1 10 8 10 13 11 11
14 11 5 1 2 4 2 3 8 7 5 6 3 4 4 4 4 3 1 4 1 4 4 5 4 1 3 1 1 2 5 5 7 3 7 6 3 8 10 10 15 13 15 14 15
14 6 3 2 2 1 2 7 6 5 4 3 1 4 2 5 2 4 2 3 6 4 1 1 6 2 3 2 4 5 7 7 6 2 4 7 4 2 15 15 15 15 11 12 17
14 1 1 2 1 3 5 6 9 6 5 1 2 5 4 3 3 4 3 3 1 4 2 2 4 4 1 1 5 3 4 6 4 1 4 5 4 8 12 14 14 15 13 14 15
1 1 1 4 3 3 7 4 3 2 1 2 4 3 3 4 1 2 3 2 3 2 3 2 3 4 3 1 2 3 1 2 3 1 4 4 5 5 8 10 13 17 12 11 13
2 3 3 2 3 6 5 5 2 3 2 0 1 1 2 2 2 3 1 2 3 3 4 2 4 6 3 2 3 5 4 2 1 4 6 2 3 6 11 9 11 11 7 10 10
2 2 4 3 6 1 2 4 2 3 1 0 1 3 3 1 1 2 3 2 4 1 2 3 2 4 6 7 2 3 2 3 3 5 2 2 6 11 11 10 15 12 6 6 6
2 2 3 4 4 0 4 2 1 2 2 1 1 3 3 3 2 1 2 2 5 3 2 2 3 4 9 6 6 5 3 4 2 3 5 3 7 10 5 9 12 8 4 6 9
3 2 5 4 1 7 5 2 3 1 2 2 1 4 4 3 1 2 1 1 1 3 3 2 2 7 6 3 2 5 6 7 6 3 3 11 9 20 22 22 17 1 4 4 4
2 3 4 2 3 3 3 6 4 3 1 2 1 3 5 2 3 1 2 4 3 5 3 5 5 4 6 6 6 13 14 10 10 7 8 19 10 16 9 13 14 10 7 7 7
4 4 3 2 2 6 2 4 5 3 4 3 5 3 4 6 8 7 5 3 6 3 6 2 5 3 6 7 10 16 17 16 15 11 12 17 27 6 10 7 12 10 10 8 8
0 2 5 3 1 5 4 5 5 7 3 4 5 3 4 4 7 8 8 7 7 8 6 5 5 3 10 6 5 12 18 21 15 7 11 14 21 3 8 11 8 12 10 8 9
Wind_Direction
356 355 352 346 341 337 331 327 324 323 319 315 316 319 314 313 320 310 248 317 315 359 343 286 267 262 306 276 241 156 212 227 229 240 264 307 217 303 170 161 235 251 68 215 127
353 351 348 344 340 335 330 325 323 322 316 314 316 317 315 318 325 293 327 324 330 345 325 279 218 251 242 217 260 155 193 226 252 260 317 334 347 328 343 330 231 287 97 152 133
351 348 343 341 339 334 328 324 322 320 316 311 309 307 311 311 51 79 348 41 19 323 266 291 308 210 212 254 230 234 235 271 279 293 306 295 313 314 0 301 222 245 340 160 179
349 344 343 340 338 333 328 324 320 317 310 302 297 295 297 274 125 181 24 46 1 308 308 305 324 245 223 221 205 286 264 244 273 292 324 306 293 310 264 242 284 290 239 133 173
347 344 341 339 337 333 328 323 319 313 303 289 280 281 292 82 94 179 142 29 345 336 330 328 306 355 263 293 355 225 248 264 276 281 295 299 280 259 279 285 287 297 313 224 176
346 340 340 338 335 332 328 324 318 312 298 273 254 243 265 95 192 92 58 30 31 352 344 11 348 306 286 298 303 293 323 303 289 287 281 279 280 276 266 264 287 281 274 245 229
343 339 338 335 334 330 327 325 322 317 314 254 205 225 271 132 125 108 157 90 41 359 341 342 19 8 344 296 339 329 316 301 245 250 244 190 289 233 254 247 254 260 265 263 229
344 340 338 336 333 329 327 327 321 349 40 150 192 259 257 157 176 121 165 145 147 276 344 42 22 312 272 328 335 270 236 304 296 342 243 141 262 255 266 291 265 249 240 242 260
344 342 338 336 333 327 326 321 311 311 170 169 197 219 236 170 105 318 339 88 138 133 276 158 108 189 357 24 332 267 240 227 297 267 299 159 251 272 294 287 296 282 256 253 256
343 343 339 337 335 329 323 304 295 298 240 217 267 350 250 136 111 353 126 332 166 144 353 173 72 74 15 92 252 310 303 316 287 312 342 293 274 291 281 284 273 277 271 247 242
348 343 341 338 334 329 343 9 19 319 312 205 350 288 25 8 117 216 113 188 220 155 200 229 80 213 225 214 232 312 307 294 287 290 312 280 261 273 283 272 265 268 255 270 263
347 342 340 339 335 338 18 68 41 260 333 157 278 288 228 311 190 149 109 150 167 208 223 37 243 235 231 253 198 277 314 291 297 294 331 291 291 279 274 272 263 255 293 314 329
344 342 339 339 335 35 89 55 320 319 225 213 221 357 136 183 278 170 156 199 212 229 243 183 223 115 219 249 315 271 227 253 257 316 294 313 303 323 302 352 57 52 65 47 36
343 342 339 333 43 329 60 333 323 288 74 264 145 258 281 283 358 91 81 145 257 228 224 227 224 196 204 248 208 281 254 2 331 11 263 71 288 310 301 61 61 60 55 49 36
344 342 339 353 247 75 292 319 293 23 19 308 26 215 285 214 158 254 62 111 245 299 81 248 168 167 201 218 205 207 38 301 277 286 359 301 92 275 109 63 67 60 52 48 44
343 346 342 5 34 142 321 323 122 46 259 321 7 357 344 255 248 158 217 346 283 326 242 241 210 188 203 295 321 53 12 323 258 113 4 243 154 283 35 134 104 69 43 34 28
339 345 350 356 262 311 11 88 43 124 333 306 344 355 339 345 333 1 88 26 78 66 350 309 232 108 105 268 348 103 60 347 360 13 224 293 113 233 113 102 84 72 51 38 26
333 330 274 161 293 19 80 53 95 229 222 286 20 324 80 11 333 342 336 115 15 30 269 143 326 153 176 155 157 185 151 155 221 222 276 323 256 35 111 92 76 63 49 45 28
334 342 294 260 1 86 73 63 204 194 195 99 42 81 324 15 24 355 72 113 57 35 177 39 264 338 221 81 118 278 156 179 119 78 65 224 279 89 92 72 58 50 36 38 24
18 345 254 310 103 81 77 183 164 112 226 198 159 143 177 285 352 40 170 282 142 45 117 24 307 292 5 174 301 160 267 79 352 175 243 264 232 170 95 61 36 28 29 32 15
56 57 263 11 77 52 136 206 180 99 22 52 199 95 140 168 318 298 210 4 46 7 352 48 143 291 1 72 40 0 8 21 181 170 188 215 227 104 100 71 37 21 40 24 360
108 64 270 69 55 31 106 161 353 140 168 275 339 125 138 93 336 297 15 74 72 55 101 346 200 251 250 278 32 66 80 84 168 274 282 206 254 150 100 48 20 18 49 2 338
111 196 314 90 126 348 303 120 46 135 159 104 153 99 114 163 35 262 10 103 47 74 135 322 303 353 334 17 12 51 58 116 165 162 229 154 246 182 355 5 0 345 10 338 350
80 76 334 39 134 129 134 218 153 85 89 92 100 94 90 37 43 251 299 107 104 108 134 47 251 180 202 144 121 275 283 288 147 152 224 240 298 300 319 328 338 219 221 250 301
48 244 196 190 319 96 106 155 151 146 81 40 12 155 149 154 1 288 312 324 239 231 186 158 214 208 249 264 279 273 267 251 221 201 201 270 263 270 277 288 301 302 308 325 323
133 131 357 171 157 117 108 214 154 163 140 215 151 140 136 174 178 207 170 208 230 310 171 190 249 241 279 241 250 260 255 253 250 229 241 259 265 266 255 277 290 281 298 304 301
239 315 107 183 138 99 208 188 190 144 255 211 159 131 256 224 195 216 211 218 221 188 209 195 164 91 255 226 273 280 235 237 240 213 202 240 253 289 268 270 251 265 260 264 277